[[{"header":{"parameterUnit":"m.s-1","parameterCategory":1,"la1":30.2991,"la2":30.254,"lo1":-89.0895,"lo2":-89.0444,"dy":0.0017,"dx":0.0017,"nx":28,"ny":28,"refTime":"2025-06-01T03:00:00:Z","depth":0,"parameterNumber":2,"parameterNumberName":"U-component_of_WINDS"},"data":[0,0,0,0,0,0,0,0,0,0,0,0,0,0,0,0,0,0,0,0,0,0,0,0,0,0,0,0,0,0,0,0,0,0,0,0,0,0,0,0,0,0,0,0,0,0,0,0,0,0,0,0,0,0,0,0,0,0,-4.2082,-4.2082,0,-4.2054,-4.2053,-4.2053,-4.197,-4.1968,-4.1966,-4.1964,-4.1935,-4.1936,-4.1937,0,0,0,0,0,0,0,0,0,0,0,0,0,-4.2067,-4.2068,-4.2082,-4.2082,-4.2082,-4.2054,-4.2053,-4.2053,-4.197,-4.1968,-4.1965,-4.1963,-4.1935,-4.1936,-4.1937,0,0,0,0,0,0,0,0,0,0,0,0,0,-4.206,-4.2068,-4.2082,-4.2037,-4.2032,-4.2054,-4.2053,-4.2053,-4.197,-4.1968,-4.1965,-4.1962,-4.1935,-4.1936,-4.1938,-4.2001,0,0,-4.1942,-4.1942,0,0,0,0,0,0,0,0,-4.206,-4.206,-4.2044,-4.204,-4.2035,-4.2012,-4.2037,-4.2035,-4.1971,-4.1994,-4.1964,-4.1961,-4.1963,-4.1962,-4.1963,-4.2,-4.1998,-4.1942,-4.1943,-4.1943,-4.1944,0,0,0,0,0,0,0,-4.2061,-4.2061,-4.2071,-4.2044,-4.2038,-4.2019,-4.2014,-4.2037,-4.1994,-4.1992,-4.1986,-4.1983,-4.196,-4.1962,-4.1962,-4.1998,-4.1942,-4.1943,-4.1944,-4.1945,-4.2086,-4.2089,0,0,0,0,0,0,-4.2068,-4.2062,-4.2072,-4.207,-4.2041,-4.2021,-4.2016,-4.2022,-4.1994,-4.1987,-4.1986,-4.198,-4.1961,-4.196,-4.196,-4.2032,-4.1943,-4.1945,-4.1945,-4.2083,-4.2087,-4.209,0,0,0,0,0,0,-4.2068,-4.2069,-4.2073,-4.2065,-4.2063,-4.2024,-4.2032,-4.2023,-4.2024,-4.1989,-4.1981,-4.1995,-4.1958,-4.1958,-4.1992,-4.203,-4.1945,-4.1947,-4.208,-4.2084,-4.2088,-4.2177,0,0,0,0,0,0,-4.2068,-4.207,-4.2093,-4.2066,-4.2064,-4.2104,-4.2034,-4.2025,-4.2027,-4.2019,-4.1996,-4.1989,-4.1956,-4.199,-4.1993,-4.203,-4.1948,-4.2076,-4.2082,-4.2087,-4.217,-4.2184,-4.2196,0,0,0,0,0,-4.2067,-4.2119,-4.2094,-4.2096,-4.2092,-4.2107,-4.2106,-4.2067,-4.203,-4.2053,-4.2031,-4.199,-4.2026,-4.1994,-4.1997,-4.2035,-4.2074,-4.208,-4.2087,-4.2165,-4.2181,-4.2195,0,0,0,0,0,0,-4.2151,-4.2114,-4.2087,-4.2131,-4.2123,-4.2093,-4.212,-4.2085,-4.2087,-4.2079,-4.2032,-4.2027,-4.2067,-4.2055,-4.202,-4.2096,-4.2043,-4.2051,-4.2102,-4.2117,-4.2129,-4.213,-4.1949,0,0,0,0,0,-4.2175,-4.2189,-4.2157,-4.2199,-4.2196,-4.2159,-4.2164,-4.2135,-4.2125,-4.2121,-4.2101,-4.2093,-4.2102,-4.2109,-4.2116,-4.217,-4.2163,-4.2198,-4.221,-4.2221,-4.2227,-4.2255,-4.2269,-4.2112,-4.2112,-4.2111,0,0,-4.2223,-4.2205,-4.2217,-4.2215,-4.2205,-4.2222,-4.2157,-4.2177,-4.2189,-4.2124,-4.2153,-4.214,-4.2127,-4.2171,-4.2189,-4.2162,-4.227,-4.2229,-4.2238,-4.2238,-4.2263,-4.2278,-4.2291,-4.2116,-4.2115,-4.2115,0,0,-4.232,-4.2308,-4.2341,-4.2334,-4.232,-4.2296,-4.2304,-4.228,-4.2268,-4.2298,-4.225,-4.2264,-4.2281,-4.2275,-4.2274,-4.2372,-4.2334,-4.2376,-4.244,-4.2468,-4.248,-4.2491,-4.2525,-4.2538,-4.2383,-4.2383,-4.2383,0,-4.2381,-4.2404,-4.2363,-4.2387,-4.2388,-4.2331,-4.2365,-4.236,-4.2349,-4.2352,-4.2322,-4.2343,-4.2331,-4.2372,-4.2397,-4.2398,-4.2406,-4.2377,-4.2482,-4.2492,-4.2501,-4.2533,-4.2547,-4.2388,-4.2387,-4.2387,-4.2386,0,-4.2481,-4.2498,-4.2527,-4.2518,-4.2523,-4.2552,-4.2516,-4.2526,-4.2498,-4.2478,-4.2509,-4.2493,-4.2496,-4.2504,-4.2477,-4.2543,-4.2526,-4.249,-4.2436,-4.2522,-4.2551,-4.2563,-4.2395,-4.2393,-4.2392,-4.2391,0,0,-4.2625,-4.2596,-4.2608,-4.2603,-4.2586,-4.2598,-4.2626,-4.2629,-4.2638,-4.2634,-4.2656,-4.2674,-4.264,-4.2639,-4.2611,-4.2636,-4.2714,-4.2596,-4.2595,-4.2618,-4.2786,-4.2812,-4.2827,-4.269,-4.2692,-4.2694,-4.2786,0,-4.2716,-4.276,-4.2725,-4.2776,-4.2791,-4.2739,-4.2763,-4.2756,-4.2738,-4.2749,-4.273,-4.2743,-4.2698,-4.2698,-4.272,-4.27,-4.2747,-4.2693,-4.2709,-4.271,-4.2712,-4.2842,-4.2869,-4.2957,-4.2798,-4.28,-4.2801,0,-4.2826,-4.2827,-4.2879,-4.286,-4.2865,-4.2887,-4.2888,-4.29,-4.2891,-4.2876,-4.2877,-4.2843,-4.2869,-4.2819,-4.2854,-4.2819,-4.2824,-4.2816,-4.2818,-4.2816,-4.2759,-4.2842,-4.2984,-4.2996,-4.2819,-4.2817,-4.2816,0,-4.2925,-4.294,-4.2973,-4.2972,-4.295,-4.2967,-4.2959,-4.2948,-4.2952,-4.2954,-4.2956,-4.2962,-4.2964,-4.2969,-4.2937,-4.2903,-4.2977,-4.2924,-4.2966,-4.2967,-4.2981,-4.2981,-4.3124,-4.2989,-4.2988,-4.2988,-4.2988,0,-4.3028,-4.3062,-4.3018,-4.3038,-4.3075,-4.3036,-4.3074,-4.3061,-4.3052,-4.3069,-4.3025,-4.3043,-4.3001,-4.3014,-4.2991,-4.3024,-4.3026,-4.3015,-4.3007,-4.3017,-4.3019,-4.3018,-4.3011,-4.2992,-4.2991,-4.299,-4.299,0,-4.3144,-4.3115,-4.3148,-4.3126,-4.3122,-4.315,-4.3131,-4.3149,-4.313,-4.3153,-4.3156,-4.3126,-4.3139,-4.3109,-4.3119,-4.3103,-4.315,-4.3134,-4.3153,-4.3147,-4.3191,-4.3187,-4.3337,-4.3355,-4.321,-4.3211,-4.3213,0,-4.321,-4.3235,-4.3216,-4.3225,-4.3219,-4.3234,-4.3239,-4.3203,-4.321,-4.3203,-4.3223,-4.3233,-4.3239,-4.3263,-4.3243,-4.325,-4.3233,-4.3286,-4.3234,-4.3243,-4.3232,-4.3231,-4.3233,-4.3295,-4.3297,-4.3299,-4.33,0,-4.3331,-4.3317,-4.3325,-4.333,-4.3337,-4.3339,-4.3338,-4.3348,-4.331,-4.3321,-4.3334,-4.3339,-4.335,-4.3361,-4.3364,-4.3356,-4.3322,-4.3317,-4.3327,-4.3336,-4.3345,-4.334,-4.318,-4.3313,-4.3312,-4.3311,-4.331,-4.3309,-4.3423,-4.3443,-4.3433,-4.3445,-4.3441,-4.3441,-4.3458,-4.3442,-4.3452,-4.3458,-4.3437,-4.3455,-4.3448,-4.3449,-4.3445,-4.3459,-4.3436,-4.345,-4.3453,-4.3457,-4.3464,-4.3345,-4.346,-4.346,-4.3459,-4.3459,-4.3459,0,-4.354,-4.3532,-4.3544,-4.3544,-4.3554,-4.3523,-4.3521,-4.3531,-4.3548,-4.3544,-4.3551,-4.3568,-4.3579,-4.356,-4.3568,-4.3583,-4.3568,-4.3587,-4.3584,-4.3583,-4.3485,-4.3475,-4.3599,-4.3599,-4.3599,-4.3599,-4.3599,-4.3599,-4.3603,-4.3635,-4.362,-4.365,-4.3642,-4.366,-4.3662,-4.3663,-4.3659,-4.368,-4.3689,-4.3677,-4.3667,-4.3675,-4.3684,-4.3678,-4.3682,-4.3706,-4.3695,-4.3604,-4.359,-4.3577,-4.3567,-4.3708,-4.3708,-4.3791,-4.3792,-4.3793]},{"header":{"parameterUnit":"m.s-1","parameterCategory":1,"la1":30.2991,"la2":30.254,"lo1":-89.0895,"lo2":-89.0444,"dy":0.0017,"dx":0.0017,"nx":28,"ny":28,"refTime":"2025-06-01T03:00:00:Z","depth":0,"parameterNumber":3,"parameterNumberName":"V-component_of_WINDS"},"data":[0,0,0,0,0,0,0,0,0,0,0,0,0,0,0,0,0,0,0,0,0,0,0,0,0,0,0,0,0,0,0,0,0,0,0,0,0,0,0,0,0,0,0,0,0,0,0,0,0,0,0,0,0,0,0,0,0,0,3.1834,3.1834,0,3.1858,3.1858,3.1859,3.1911,3.1912,3.1913,3.1914,3.1933,3.1933,3.1932,0,0,0,0,0,0,0,0,0,0,0,0,0,3.1828,3.1827,3.1834,3.1834,3.1834,3.1858,3.1858,3.1859,3.191,3.1912,3.1913,3.1914,3.1933,3.1933,3.1932,0,0,0,0,0,0,0,0,0,0,0,0,0,3.1839,3.1827,3.1833,3.1863,3.1866,3.1858,3.1858,3.1859,3.191,3.1912,3.1913,3.1915,3.1933,3.1933,3.1932,3.1896,0,0,3.193,3.193,0,0,0,0,0,0,0,0,3.1838,3.1839,3.1858,3.1861,3.1864,3.1883,3.1864,3.1871,3.191,3.1893,3.1914,3.1916,3.1915,3.1916,3.1917,3.1897,3.1898,3.193,3.1929,3.1929,3.1929,0,0,0,0,0,0,0,3.1837,3.1838,3.1843,3.1858,3.1862,3.1874,3.1877,3.1865,3.1894,3.1895,3.1899,3.1901,3.1917,3.1917,3.1917,3.1898,3.193,3.1929,3.1929,3.1929,3.1851,3.1849,0,0,0,0,0,0,3.1833,3.1837,3.1842,3.1844,3.1855,3.1873,3.1876,3.1875,3.1895,3.1899,3.19,3.1903,3.1918,3.1918,3.1918,3.1878,3.1929,3.1928,3.1928,3.1852,3.185,3.1849,0,0,0,0,0,0,3.1832,3.1833,3.1841,3.1842,3.1844,3.1871,3.1869,3.1875,3.1876,3.1899,3.1904,3.1895,3.1919,3.1919,3.1902,3.1879,3.1928,3.1927,3.1854,3.1852,3.1849,3.1796,0,0,0,0,0,0,3.1832,3.1832,3.182,3.1841,3.1843,3.1825,3.1868,3.1874,3.1875,3.188,3.1896,3.19,3.192,3.1903,3.1901,3.1879,3.1927,3.1856,3.1853,3.185,3.18,3.1792,3.1785,0,0,0,0,0,3.1832,3.1802,3.1819,3.1819,3.1828,3.1824,3.1825,3.1851,3.1873,3.186,3.1875,3.1899,3.1882,3.19,3.1899,3.1877,3.1858,3.1854,3.185,3.1803,3.1794,3.1786,0,0,0,0,0,0,3.1775,3.1805,3.1824,3.1801,3.181,3.1833,3.1817,3.184,3.1841,3.1845,3.1876,3.1879,3.1857,3.1865,3.1885,3.1843,3.1874,3.187,3.1839,3.183,3.1823,3.1821,3.1926,0,0,0,0,0,3.176,3.1755,3.1782,3.1759,3.1762,3.1789,3.1788,3.1807,3.1817,3.182,3.1834,3.1841,3.1837,3.1834,3.1832,3.1802,3.1806,3.1786,3.1779,3.1773,3.1768,3.1754,3.1745,3.1836,3.1836,3.1836,0,0,3.1728,3.1745,3.1739,3.1748,3.1757,3.175,3.1791,3.1782,3.1777,3.1818,3.1803,3.1813,3.1823,3.18,3.179,3.1806,3.1744,3.1768,3.1763,3.1762,3.1749,3.174,3.1733,3.1834,3.1834,3.1835,0,0,3.1668,3.168,3.1662,3.1671,3.1686,3.1704,3.17,3.172,3.1729,3.1715,3.1746,3.174,3.1733,3.1739,3.1741,3.1685,3.1707,3.1683,3.1645,3.163,3.1623,3.1617,3.1597,3.159,3.1679,3.1679,3.1679,0,3.1626,3.1619,3.165,3.164,3.1642,3.1682,3.1664,3.1671,3.1682,3.1683,3.1701,3.1695,3.1704,3.1683,3.1669,3.167,3.1665,3.1681,3.1622,3.1616,3.1611,3.1592,3.1584,3.1676,3.1677,3.1677,3.1677,0,3.1567,3.1562,3.1546,3.1559,3.156,3.1546,3.1574,3.1571,3.1591,3.1607,3.1592,3.1605,3.1607,3.1604,3.1621,3.1585,3.1595,3.1617,3.1648,3.1599,3.1582,3.1575,3.1672,3.1673,3.1674,3.1675,0,0,3.147,3.1502,3.1496,3.1503,3.1523,3.1518,3.1506,3.151,3.1507,3.1514,3.1504,3.1499,3.152,3.1523,3.1542,3.1529,3.1485,3.1554,3.1554,3.154,3.1445,3.1428,3.1419,3.15,3.1499,3.1498,3.1445,0,3.1413,3.1396,3.1424,3.14,3.1395,3.1433,3.1423,3.1433,3.1448,3.1445,3.1461,3.1457,3.1486,3.1488,3.1477,3.1492,3.1466,3.1497,3.149,3.149,3.1486,3.141,3.1392,3.134,3.1438,3.1437,3.1436,0,3.1345,3.1351,3.1327,3.135,3.1349,3.1339,3.1345,3.1343,3.1355,3.1367,3.1371,3.1395,3.1384,3.1415,3.14,3.142,3.1419,3.1427,3.1425,3.1425,3.1459,3.1408,3.1325,3.1317,3.1426,3.1427,3.1428,0,3.1276,3.1279,3.1265,3.127,3.1296,3.1288,3.1298,3.1312,3.1313,3.1319,3.132,3.1323,3.1324,3.1326,3.135,3.137,3.1331,3.1364,3.134,3.1339,3.1329,3.1329,3.1244,3.1329,3.1329,3.1329,3.133,0,3.121,3.1193,3.1235,3.1226,3.1209,3.1241,3.1223,3.1237,3.1249,3.1243,3.1276,3.1269,3.1302,3.1298,3.1317,3.1302,3.1302,3.131,3.1315,3.1307,3.1306,3.1306,3.131,3.1327,3.1328,3.1328,3.1329,0,3.113,3.1157,3.1144,3.1171,3.1177,3.1163,3.1186,3.1178,3.1196,3.1188,3.1188,3.1216,3.1214,3.1238,3.124,3.1253,3.1229,3.124,3.1225,3.1228,3.1202,3.1204,3.1114,3.1104,3.1195,3.1195,3.1194,0,3.1085,3.1074,3.11,3.11,3.1109,3.1107,3.1109,3.1141,3.1141,3.1156,3.1146,3.1148,3.115,3.1145,3.1164,3.1166,3.1177,3.1146,3.1178,3.117,3.1177,3.1177,3.1176,3.1139,3.1137,3.1136,3.1136,0,3.1004,3.1018,3.1021,3.1028,3.1031,3.1037,3.1046,3.1044,3.1078,3.1077,3.1077,3.1079,3.1082,3.1083,3.1089,3.1098,3.1122,3.1126,3.112,3.1111,3.1103,3.1107,3.1206,3.1127,3.1128,3.1129,3.1129,3.113,3.094,3.0932,3.095,3.0952,3.0963,3.0971,3.0966,3.0984,3.0985,3.0992,3.101,3.1006,3.102,3.1031,3.1038,3.1035,3.105,3.1042,3.104,3.1037,3.1033,3.1105,3.1036,3.1037,3.1037,3.1037,3.1037,0,3.086,3.0874,3.0876,3.0889,3.089,3.0916,3.0927,3.0926,3.0924,3.0935,3.0938,3.0937,3.0939,3.0959,3.0962,3.0956,3.0967,3.0955,3.0956,3.0958,3.1019,3.1023,3.0946,3.0946,3.0946,3.0947,3.0947,3.0947,3.0819,3.0807,3.0824,3.0818,3.0832,3.083,3.0835,3.0842,3.0852,3.0851,3.0853,3.0867,3.0882,3.0887,3.0889,3.0895,3.0894,3.0879,3.0888,3.0944,3.0953,3.0962,3.0966,3.0878,3.0878,3.0827,3.0827,3.0826]}]]